Flag for USA

Past Weather in 40°44'48.0"N, 73°25'32.4"W, USA — Yesterday and Last 2 Weeks

Now
84 °F

Scattered clouds.


Feels Like: 87 °F
Forecast: 86 / 70 °F
Wind: N/A

Location: New York City - Central Park

Current Time: Jun 6, 2020 at 2:32:01 pm

Latest Report: Jun 6, 2020 at 1:51 pm


Visibility: 9 mi

Pressure: 29.70 "Hg

Humidity: 59%

Dew Point: 68 °F

Location of 40°44'48.0"N, 73°25'32.4"WLocation

Past Weather in 40°44'48.0"N, 73°25'32.4"W — Graph

°F

40°44'48.0"N, 73°25'32.4"W Temperature Yesterday

Maximum temperature yesterday: 79 °F (at 2:51 pm)
Minimum temperature yesterday: 69 °F (at 3:10 am)
Average temperature yesterday: 72 °F

High & Low Weather Summary for the Past Weeks

 TemperatureHumidityPressure
High85 °F (Jun 6, 12:51 pm)97% (May 22, 8:51 pm)30.29 "Hg (May 22, 8:51 pm)
Low52 °F (May 24, 6:51 am)26% (May 31, 1:51 pm)29.60 "Hg (Jun 3, 11:51 am)
Average67 °F73%30.03 "Hg
* Reported May 22 12:51 pm — Jun 6 12:51 pm, 40°44'48.0"N, 73°25'32.4"W. Weather by CustomWeather, © 2020

Note: Actual official high and low records may vary slightly from our data, if they occured in-between our weather recording intervals... More about our weather records

40°44'48.0"N, 73°25'32.4"W Weather History for the Previous 24 Hours

Scroll right to see more
 ConditionsComfort  
Time TempWeatherWind HumidityBarometerVisibility
12:51 pm
Sat, Jun 6
85 °FScattered clouds.N/A59%29.74 "Hg10 mi
11:51 am82 °FSunny.N/A67%29.76 "Hg10 mi
10:51 am79 °FSunny.N/A74%29.78 "Hg9 mi
9:51 am77 °FSunny.N/A79%29.78 "Hg8 mi
8:51 am74 °FFog.N/A88%29.80 "Hg6 mi
8:43 am73 °FFog.N/A90%29.82 "Hg6 mi
7:51 am73 °FFog.N/A94%29.79 "Hg5 mi
7:06 am72 °FFog.N/A93%29.82 "Hg5 mi
6:51 am71 °FFog.N/A96%29.79 "Hg4 mi
6:20 am71 °FFog.N/A93%29.82 "Hg3 mi
6:13 am71 °FFog.N/A93%29.82 "Hg2 mi
5:51 am71 °FFog.N/A93%29.79 "Hg4 mi
4:51 am71 °FFog.N/A96%29.79 "Hg5 mi
3:59 am71 °FFog.N/A96%29.82 "Hg6 mi
3:51 am71 °FFog.N/A93%29.79 "Hg6 mi
3:25 am71 °FFog.N/A93%29.83 "Hg6 mi
3:10 am71 °FFog.N/A93%29.83 "Hg2 mi
2:51 am71 °FPassing clouds.N/A93%29.80 "Hg8 mi
2:13 am70 °FPassing clouds.N/A97%29.84 "Hg8 mi
1:51 am71 °FPassing clouds.N/A93%29.82 "Hg8 mi
12:51 am71 °FLight rain. Fog.N/A96%29.83 "Hg5 mi
11:51 pm
Fri, Jun 5
71 °FLight rain. Passing clouds.N/A96%29.86 "Hg7 mi
10:51 pm72 °FLight rain. Passing clouds.N/A93%29.86 "Hg7 mi
9:51 pm72 °FMostly cloudy.N/A91%29.88 "Hg10 mi
8:51 pm71 °FLight rain. Passing clouds.N/A93%29.87 "Hg8 mi
7:51 pm72 °FFog.N/A91%29.86 "Hg6 mi
6:51 pm72 °FLight rain. Fog.N/A93%29.88 "Hg5 mi
5:51 pm76 °FBroken clouds.N/A77%29.86 "Hg10 mi
5:24 pm75 °FScattered clouds.N/A82%29.89 "Hg9 mi
5:05 pm75 °FLight rain. Mostly cloudy.N/A79%29.90 "Hg7 mi
4:51 pm76 °FLight rain. Cloudy.N/A80%29.87 "Hg9 mi
3:51 pm79 °FScattered clouds.N/A69%29.87 "Hg10 mi
2:51 pm79 °FSunny.N/A67%29.89 "Hg10 mi
Weather by CustomWeather, © 2020

See weather overview

Advertising